JAL501 RJTT-RJCC

Flight info

Callsign JAL501
Flight time 1h 8m
Altitude 39000
Route BRUCE AGRIS Y11 SAMBO Y119 OHMAR Y13 SIRAO Y139 NAVER
Aircraft B789/H-SDE1E2E3FGHIJ2J3J4J5M1RWXY/LB1D1

Departure

Time 2026-05-03 21:21
Airport Tokyo Haneda International Airport (RJTT)

Arrival

Time 2026-05-03 22:30
Airport New Chitose Airport (RJCC)
Time Latitude Longitude Altitude Speed Heading
2026-05-03 21:05 35.54774 139.78250 30 ft 0 kts 52°
2026-05-03 21:08 35.54766 139.78237 30 ft 4 kts 52°
2026-05-03 21:09 35.54749 139.78211 27 ft 3 kts 52°
2026-05-03 21:09 35.54735 139.78194 29 ft 4 kts
2026-05-03 21:09 35.54712 139.78202 28 ft 4 kts 328°
2026-05-03 21:09 35.54690 139.78218 27 ft 4 kts 329°
2026-05-03 21:10 35.54668 139.78234 29 ft 4 kts 329°
2026-05-03 21:10 35.54650 139.78246 29 ft 0 kts 329°
2026-05-03 21:11 35.54650 139.78247 29 ft 0 kts 329°
2026-05-03 21:11 35.54650 139.78246 29 ft 0 kts 329°
2026-05-03 21:13 35.54655 139.78243 29 ft 3 kts 328°
2026-05-03 21:14 35.54687 139.78219 28 ft 7 kts 329°
2026-05-03 21:14 35.54729 139.78189 28 ft 8 kts 330°
2026-05-03 21:14 35.54790 139.78146 30 ft 11 kts 330°
2026-05-03 21:14 35.54843 139.78088 30 ft 9 kts 289°
2026-05-03 21:15 35.54842 139.78016 29 ft 9 kts 275°
2026-05-03 21:15 35.54869 139.77965 28 ft 8 kts 322°
2026-05-03 21:15 35.54938 139.77915 29 ft 17 kts 330°
2026-05-03 21:15 35.55079 139.77814 29 ft 29 kts 329°
2026-05-03 21:16 35.55250 139.77693 29 ft 28 kts 330°
2026-05-03 21:16 35.55414 139.77577 29 ft 26 kts 330°
2026-05-03 21:16 35.55567 139.77470 29 ft 25 kts 329°
2026-05-03 21:16 35.55711 139.77366 29 ft 24 kts 330°
2026-05-03 21:17 35.55851 139.77266 28 ft 23 kts 333°
2026-05-03 21:17 35.55913 139.77264 28 ft 7 kts 30°
2026-05-03 21:17 35.55952 139.77337 27 ft 15 kts 62°
2026-05-03 21:17 35.56007 139.77458 28 ft 16 kts 60°
2026-05-03 21:18 35.56069 139.77589 29 ft 21 kts 60°
2026-05-03 21:18 35.56159 139.77777 29 ft 28 kts 60°
2026-05-03 21:18 35.56255 139.77978 28 ft 24 kts 60°
2026-05-03 21:18 35.56332 139.78141 28 ft 20 kts 57°
2026-05-03 21:19 35.56414 139.78160 28 ft 10 kts 328°
2026-05-03 21:19 35.56478 139.78112 28 ft 11 kts 329°
2026-05-03 21:19 35.56536 139.78047 28 ft 11 kts 309°
2026-05-03 21:19 35.56586 139.77965 28 ft 14 kts 305°
2026-05-03 21:20 35.56643 139.77865 28 ft 14 kts 305°
2026-05-03 21:20 35.56695 139.77773 29 ft 10 kts 305°
2026-05-03 21:20 35.56717 139.77705 30 ft 8 kts 268°
2026-05-03 21:20 35.56688 139.77654 30 ft 3 kts 214°
2026-05-03 21:21 35.56615 139.77590 31 ft 45 kts 215°
2026-05-03 21:21 35.56112 139.77163 33 ft 127 kts 214°
2026-05-03 21:21 35.55367 139.76468 715 ft 133 kts 218°
2026-05-03 21:22 35.54644 139.75773 1385 ft 129 kts 217°
2026-05-03 21:22 35.53888 139.75187 1932 ft 134 kts 214°
2026-05-03 21:22 35.53047 139.74577 2332 ft 141 kts 215°
2026-05-03 21:22 35.52276 139.74022 3277 ft 117 kts 219°
2026-05-03 21:23 35.51690 139.73317 3675 ft 126 kts 244°
2026-05-03 21:23 35.51399 139.72287 4191 ft 129 kts 247°
2026-05-03 21:23 35.51289 139.71145 4644 ft 143 kts 262°
2026-05-03 21:23 35.51457 139.69870 5044 ft 163 kts 277°
2026-05-03 21:24 35.52078 139.68611 5560 ft 182 kts 296°
2026-05-03 21:24 35.53134 139.67592 6027 ft 209 kts 320°
2026-05-03 21:24 35.54653 139.67154 6397 ft 243 kts 347°
2026-05-03 21:24 35.56391 139.67636 6767 ft 271 kts 14°
2026-05-03 21:25 35.58141 139.68586 7172 ft 281 kts 15°
2026-05-03 21:25 35.59976 139.69459 7659 ft 283 kts
2026-05-03 21:25 35.61883 139.70085 8221 ft 287 kts
2026-05-03 21:25 35.63786 139.70771 8921 ft 287 kts 10°
2026-05-03 21:26 35.65662 139.71725 9405 ft 296 kts 14°
2026-05-03 21:26 35.67611 139.72653 9715 ft 303 kts
2026-05-03 21:26 35.69641 139.73396 10174 ft 305 kts
2026-05-03 21:26 35.71706 139.74160 10427 ft 322 kts 10°
2026-05-03 21:27 35.73890 139.75174 10616 ft 346 kts 13°
2026-05-03 21:27 35.76198 139.76226 10899 ft 362 kts 11°
2026-05-03 21:27 35.78642 139.77238 11214 ft 378 kts 10°
2026-05-03 21:27 35.81185 139.78278 11556 ft 392 kts 11°
2026-05-03 21:28 35.83785 139.79394 12141 ft 398 kts 12°
2026-05-03 21:28 35.86409 139.80535 12777 ft 402 kts 12°
2026-05-03 21:28 35.89062 139.81665 13446 ft 404 kts 11°
2026-05-03 21:28 35.91733 139.82790 14026 ft 407 kts 11°
2026-05-03 21:29 35.94426 139.83933 14568 ft 411 kts 12°
2026-05-03 21:29 35.97146 139.85098 15089 ft 416 kts 12°
2026-05-03 21:29 35.99886 139.86272 15630 ft 419 kts 12°
2026-05-03 21:29 36.02660 139.87454 16161 ft 423 kts 12°
2026-05-03 21:30 36.05452 139.88645 16675 ft 427 kts 12°
2026-05-03 21:30 36.08274 139.89852 17177 ft 431 kts 12°
2026-05-03 21:30 36.11121 139.91072 17695 ft 435 kts 12°
2026-05-03 21:30 36.13990 139.92301 18148 ft 438 kts 12°
2026-05-03 21:31 36.16877 139.93538 18570 ft 442 kts 12°
2026-05-03 21:31 36.19814 139.94559 18896 ft 436 kts
2026-05-03 21:31 36.22807 139.94827 19318 ft 426 kts 350°
2026-05-03 21:31 36.25779 139.94726 19845 ft 428 kts 349°
2026-05-03 21:32 36.28766 139.94627 20378 ft 432 kts 349°
2026-05-03 21:32 36.31789 139.94541 20909 ft 436 kts 349°
2026-05-03 21:32 36.34842 139.94461 21381 ft 441 kts 349°
2026-05-03 21:32 36.37922 139.94374 21863 ft 445 kts 349°
2026-05-03 21:33 36.41028 139.94281 22374 ft 448 kts 349°
2026-05-03 21:33 36.44170 139.94327 22811 ft 457 kts 354°
2026-05-03 21:33 36.47369 139.94481 23256 ft 460 kts 353°
2026-05-03 21:33 36.50576 139.94623 23677 ft 463 kts 353°
2026-05-03 21:34 36.53807 139.94752 24069 ft 467 kts 353°
2026-05-03 21:34 36.57062 139.94886 24455 ft 470 kts 353°
2026-05-03 21:34 36.60343 139.95031 24827 ft 473 kts 353°
2026-05-03 21:34 36.63647 139.95177 25227 ft 476 kts 353°
2026-05-03 21:35 36.66967 139.95318 25605 ft 479 kts 353°
2026-05-03 21:35 36.70313 139.95458 26009 ft 483 kts 353°
2026-05-03 21:35 36.73676 139.95603 26371 ft 486 kts 353°
2026-05-03 21:35 36.77068 139.95751 26739 ft 489 kts 353°
2026-05-03 21:36 36.80484 139.95899 27101 ft 492 kts 353°
2026-05-03 21:36 36.83916 139.96045 27455 ft 495 kts 353°
2026-05-03 21:36 36.87370 139.96249 27778 ft 503 kts 356°
2026-05-03 21:36 36.90872 139.97026 28097 ft 515 kts
2026-05-03 21:37 36.94382 139.97961 28461 ft 517 kts
2026-05-03 21:37 36.97916 139.98886 28802 ft 520 kts
2026-05-03 21:37 37.01464 139.99779 29141 ft 522 kts
2026-05-03 21:37 37.05043 140.00684 29460 ft 526 kts
2026-05-03 21:38 37.08635 140.01618 29768 ft 529 kts
2026-05-03 21:38 37.12249 140.02564 30069 ft 532 kts
2026-05-03 21:38 37.15882 140.03500 30361 ft 534 kts
2026-05-03 21:38 37.19532 140.04435 30677 ft 537 kts
2026-05-03 21:39 37.23197 140.05383 30966 ft 539 kts
2026-05-03 21:39 37.26881 140.06343 31263 ft 542 kts
2026-05-03 21:39 37.30581 140.07305 31595 ft 544 kts
2026-05-03 21:39 37.34308 140.08267 31741 ft 549 kts
2026-05-03 21:40 37.38055 140.09239 31993 ft 551 kts
2026-05-03 21:40 37.41807 140.10222 32314 ft 552 kts
2026-05-03 21:40 37.45526 140.11192 32601 ft 554 kts
2026-05-03 21:40 37.49363 140.12187 32869 ft 557 kts
2026-05-03 21:41 37.53114 140.13164 33154 ft 560 kts
2026-05-03 21:41 37.56949 140.14166 33356 ft 564 kts
2026-05-03 21:41 37.60793 140.15177 33748 ft 564 kts
2026-05-03 21:41 37.64632 140.16183 34090 ft 564 kts
2026-05-03 21:42 37.68477 140.17184 34430 ft 564 kts
2026-05-03 21:42 37.72321 140.18188 34791 ft 564 kts
2026-05-03 21:42 37.76163 140.19200 35146 ft 564 kts
2026-05-03 21:42 37.79998 140.20209 35525 ft 562 kts
2026-05-03 21:43 37.83824 140.21212 35877 ft 562 kts
2026-05-03 21:43 37.87646 140.22217 36229 ft 561 kts
2026-05-03 21:43 37.91472 140.23224 36466 ft 562 kts
2026-05-03 21:43 37.95312 140.24235 36621 ft 566 kts
2026-05-03 21:44 38.03028 140.26279 36605 ft 563 kts
2026-05-03 21:44 38.10670 140.28296 36598 ft 561 kts
2026-05-03 21:45 38.18311 140.30322 36598 ft 562 kts
2026-05-03 21:45 38.25961 140.32358 36595 ft 561 kts
2026-05-03 21:46 38.33595 140.34388 36589 ft 560 kts
2026-05-03 21:46 38.41221 140.36548 36596 ft 564 kts
2026-05-03 21:47 38.48832 140.38994 36593 ft 565 kts
2026-05-03 21:47 38.56475 140.41442 36629 ft 566 kts
2026-05-03 21:48 38.62834 140.43499 36597 ft 567 kts
2026-05-03 21:48 38.70480 140.45955 36610 ft 566 kts
2026-05-03 21:49 38.78127 140.48438 36608 ft 568 kts
2026-05-03 21:49 38.85784 140.50908 36591 ft 566 kts
2026-05-03 21:50 38.93425 140.53398 36571 ft 567 kts
2026-05-03 21:50 39.01041 140.55874 36624 ft 564 kts
2026-05-03 21:51 39.08631 140.58356 36552 ft 564 kts
2026-05-03 21:51 39.16276 140.60859 36541 ft 572 kts
2026-05-03 21:52 39.24053 140.63416 36634 ft 582 kts
2026-05-03 21:52 39.31943 140.66023 36579 ft 585 kts
2026-05-03 21:53 39.39784 140.68609 36580 ft 587 kts
2026-05-03 21:53 39.47694 140.71231 36614 ft 586 kts
2026-05-03 21:54 39.55596 140.73851 36576 ft 586 kts
2026-05-03 21:54 39.63503 140.76477 36575 ft 586 kts
2026-05-03 21:55 39.71404 140.79114 36603 ft 587 kts
2026-05-03 21:55 39.79342 140.81766 36550 ft 589 kts
2026-05-03 21:56 39.87273 140.84424 36542 ft 588 kts
2026-05-03 21:56 39.95215 140.87084 36534 ft 591 kts
2026-05-03 21:57 40.03157 140.89767 36530 ft 588 kts
2026-05-03 21:57 40.11083 140.92433 36529 ft 588 kts
2026-05-03 21:58 40.19017 140.94878 36489 ft 577 kts 358°
2026-05-03 21:58 40.22965 140.95202 36518 ft 565 kts 351°
2026-05-03 21:58 40.26895 140.95306 36498 ft 564 kts 350°
2026-05-03 21:59 40.34742 140.95554 36502 ft 565 kts 351°
2026-05-03 21:59 40.42612 140.95825 36502 ft 565 kts 351°
2026-05-03 22:00 40.50463 140.96076 36495 ft 564 kts 351°
2026-05-03 22:00 40.58321 140.96341 36480 ft 565 kts 351°
2026-05-03 22:01 40.66195 140.96596 36483 ft 567 kts 351°
2026-05-03 22:01 40.74083 140.96864 36490 ft 567 kts 351°
2026-05-03 22:02 40.81978 140.97123 36502 ft 569 kts 351°
2026-05-03 22:02 40.89889 140.97391 36475 ft 568 kts 351°
2026-05-03 22:03 40.97804 140.97651 36468 ft 569 kts 351°
2026-05-03 22:03 41.05716 140.97917 36479 ft 569 kts 351°
2026-05-03 22:04 41.13602 140.98185 36479 ft 566 kts 351°
2026-05-03 22:04 41.21487 140.98445 36474 ft 568 kts 351°
2026-05-03 22:05 41.29409 140.98903 36446 ft 579 kts 358°
2026-05-03 22:05 41.33392 141.00032 36456 ft 592 kts
2026-05-03 22:05 41.37249 141.01829 36464 ft 597 kts 13°
2026-05-03 22:06 41.45051 141.05721 36460 ft 599 kts 13°
2026-05-03 22:06 41.52856 141.09551 36472 ft 590 kts 13°
2026-05-03 22:07 41.56655 141.11439 36465 ft 579 kts 13°
2026-05-03 22:07 41.60415 141.13310 36468 ft 575 kts 13°
2026-05-03 22:07 41.67925 141.17015 36465 ft 577 kts 13°
2026-05-03 22:08 41.75447 141.20817 36513 ft 578 kts 13°
2026-05-03 22:08 41.82975 141.24640 36480 ft 578 kts 13°
2026-05-03 22:09 41.90496 141.28445 36437 ft 574 kts 13°
2026-05-03 22:09 41.94192 141.30472 35524 ft 580 kts 19°
2026-05-03 22:10 42.00863 141.36489 31544 ft 586 kts 39°
2026-05-03 22:10 42.03822 141.40281 29118 ft 590 kts 44°
2026-05-03 22:10 42.06649 141.44264 26734 ft 584 kts 45°
2026-05-03 22:10 42.09402 141.48194 24725 ft 569 kts 43°
2026-05-03 22:11 42.12238 141.51811 23187 ft 549 kts 39°
2026-05-03 22:11 42.15131 141.54797 22729 ft 499 kts 30°
2026-05-03 22:11 42.17845 141.57385 22398 ft 460 kts 31°
2026-05-03 22:11 42.20354 141.59917 22025 ft 450 kts 33°
2026-05-03 22:12 42.22873 141.62511 21618 ft 458 kts 33°
2026-05-03 22:12 42.25414 141.65081 21161 ft 453 kts 32°
2026-05-03 22:12 42.27938 141.67596 20685 ft 449 kts 32°
2026-05-03 22:12 42.30433 141.70101 20216 ft 445 kts 32°
2026-05-03 22:13 42.32898 141.72604 19738 ft 442 kts 33°
2026-05-03 22:13 42.35342 141.75087 19249 ft 438 kts 33°
2026-05-03 22:13 42.37772 141.77542 18785 ft 434 kts 32°
2026-05-03 22:13 42.40186 141.79981 18301 ft 431 kts 33°
2026-05-03 22:14 42.42573 141.82403 17834 ft 427 kts 33°
2026-05-03 22:14 42.44937 141.84807 17307 ft 423 kts 33°
2026-05-03 22:14 42.47278 141.87187 16804 ft 418 kts 33°
2026-05-03 22:14 42.49585 141.89533 16411 ft 410 kts 33°
2026-05-03 22:15 42.51843 141.91833 16085 ft 401 kts 34°
2026-05-03 22:15 42.54152 141.93800 15653 ft 386 kts 18°
2026-05-03 22:15 42.56673 141.94775 15237 ft 369 kts
2026-05-03 22:15 42.59175 141.94786 14840 ft 353 kts 343°
2026-05-03 22:16 42.61574 141.94258 14529 ft 350 kts 341°
2026-05-03 22:16 42.63986 141.93710 14178 ft 351 kts 342°
2026-05-03 22:16 42.66372 141.93194 13808 ft 345 kts 342°
2026-05-03 22:16 42.68735 141.92691 13445 ft 343 kts 342°
2026-05-03 22:17 42.71094 141.92173 13057 ft 344 kts 343°
2026-05-03 22:17 42.73460 141.91653 12650 ft 342 kts 343°
2026-05-03 22:17 42.75787 141.91149 12247 ft 337 kts 343°
2026-05-03 22:17 42.78101 141.90645 11787 ft 337 kts 343°
2026-05-03 22:18 42.80445 141.90120 10977 ft 345 kts 345°
2026-05-03 22:18 42.82837 141.89595 10226 ft 349 kts 346°
2026-05-03 22:18 42.85233 141.89081 9603 ft 349 kts 347°
2026-05-03 22:18 42.87625 141.88561 9002 ft 346 kts 347°
2026-05-03 22:19 42.89922 141.88060 8479 ft 320 kts 347°
2026-05-03 22:19 42.92046 141.87597 8002 ft 301 kts 347°
2026-05-03 22:19 42.94082 141.87145 7593 ft 294 kts 347°
2026-05-03 22:19 42.96092 141.86699 7231 ft 292 kts 348°
2026-05-03 22:20 42.98094 141.86259 6888 ft 291 kts 348°
2026-05-03 22:20 43.00090 141.85822 6560 ft 290 kts 348°
2026-05-03 22:20 43.02016 141.85401 6307 ft 266 kts 348°
2026-05-03 22:20 43.03748 141.85023 6041 ft 239 kts 348°
2026-05-03 22:21 43.05345 141.84668 5801 ft 228 kts 348°
2026-05-03 22:21 43.06902 141.84242 5554 ft 228 kts 340°
2026-05-03 22:21 43.08098 141.82966 5140 ft 214 kts 299°
2026-05-03 22:21 43.08590 141.81166 4885 ft 197 kts 270°
2026-05-03 22:22 43.08427 141.79399 4733 ft 186 kts 244°
2026-05-03 22:22 43.07751 141.77944 4625 ft 180 kts 224°
2026-05-03 22:22 43.06931 141.76638 4527 ft 182 kts 224°
2026-05-03 22:22 43.06122 141.75299 4377 ft 183 kts 225°
2026-05-03 22:23 43.05321 141.73951 4211 ft 182 kts 225°
2026-05-03 22:23 43.04512 141.72592 4021 ft 188 kts 225°
2026-05-03 22:23 43.03683 141.71206 3855 ft 188 kts 225°
2026-05-03 22:23 43.02853 141.69812 3639 ft 188 kts 225°
2026-05-03 22:24 43.02028 141.68435 3431 ft 184 kts 226°
2026-05-03 22:24 43.01226 141.67092 3227 ft 182 kts 226°
2026-05-03 22:24 43.00379 141.65804 3008 ft 182 kts 216°
2026-05-03 22:24 42.99203 141.65297 2750 ft 177 kts 184°
2026-05-03 22:25 42.97977 141.65280 2595 ft 176 kts 173°
2026-05-03 22:25 42.96791 141.65483 2438 ft 169 kts 171°
2026-05-03 22:25 42.95633 141.65696 2295 ft 167 kts 170°
2026-05-03 22:25 42.94463 141.65924 2097 ft 172 kts 171°
2026-05-03 22:26 42.93295 141.66112 2022 ft 163 kts 171°
2026-05-03 22:26 42.92221 141.66309 1997 ft 153 kts 170°
2026-05-03 22:26 42.91175 141.66501 1990 ft 148 kts 170°
2026-05-03 22:26 42.90158 141.66698 1998 ft 149 kts 169°
2026-05-03 22:27 42.89128 141.66890 1996 ft 149 kts 169°
2026-05-03 22:27 42.88098 141.67079 1961 ft 151 kts 169°
2026-05-03 22:27 42.87034 141.67279 1743 ft 155 kts 170°
2026-05-03 22:27 42.85984 141.67471 1532 ft 152 kts 170°
2026-05-03 22:28 42.84930 141.67667 1327 ft 154 kts 170°
2026-05-03 22:28 42.83862 141.67865 1111 ft 156 kts 171°
2026-05-03 22:28 42.82836 141.68053 898 ft 141 kts 171°
2026-05-03 22:28 42.81872 141.68231 711 ft 140 kts 171°
2026-05-03 22:29 42.80898 141.68410 531 ft 142 kts 171°
2026-05-03 22:29 42.79924 141.68591 350 ft 141 kts 172°
2026-05-03 22:29 42.78961 141.68776 168 ft 142 kts 171°
2026-05-03 22:29 42.78004 141.68938 88 ft 129 kts 171°
2026-05-03 22:30 42.77286 141.69082 90 ft 80 kts 171°
2026-05-03 22:30 42.76865 141.69129 87 ft 44 kts 188°
2026-05-03 22:30 42.76668 141.68998 88 ft 21 kts 220°
2026-05-03 22:30 42.76613 141.68973 89 ft 1 kts 167°
2026-05-03 22:31 42.76608 141.68981 87 ft 1 kts 125°
2026-05-03 22:31 42.76608 141.68997 87 ft 2 kts 81°
2026-05-03 22:31 42.76620 141.69018 87 ft 3 kts 39°
2026-05-03 22:31 42.76649 141.69028 88 ft 6 kts
2026-05-03 22:32 42.76716 141.68982 87 ft 18 kts 324°
2026-05-03 22:32 42.76852 141.68936 87 ft 23 kts 353°
2026-05-03 22:32 42.77017 141.68908 89 ft 23 kts 352°
2026-05-03 22:32 42.77171 141.68879 87 ft 19 kts 352°
2026-05-03 22:33 42.77317 141.68853 89 ft 24 kts 352°
2026-05-03 22:33 42.77493 141.68820 88 ft 28 kts 352°
2026-05-03 22:33 42.77699 141.68784 86 ft 32 kts 353°
2026-05-03 22:33 42.77871 141.68755 86 ft 22 kts 353°
2026-05-03 22:34 42.78008 141.68731 89 ft 22 kts 353°
2026-05-03 22:34 42.78177 141.68702 87 ft 26 kts 353°
2026-05-03 22:34 42.78351 141.68672 89 ft 19 kts 352°
2026-05-03 22:34 42.78437 141.68657 88 ft 18 kts 352°
2026-05-03 22:35 42.78563 141.68634 87 ft 18 kts 351°
2026-05-03 22:35 42.78689 141.68608 88 ft 18 kts 351°
2026-05-03 22:35 42.78789 141.68572 89 ft 8 kts 318°
2026-05-03 22:35 42.78801 141.68528 86 ft 9 kts 276°
2026-05-03 22:36 42.78809 141.68436 88 ft 9 kts 300°
2026-05-03 22:36 42.78859 141.68382 88 ft 8 kts 308°
2026-05-03 22:36 42.78863 141.68314 87 ft 8 kts 256°
2026-05-03 22:36 42.78856 141.68279 85 ft 2 kts 251°
2026-05-03 22:37 42.78854 141.68269 85 ft 1 kts 250°
2026-05-03 22:37 42.78853 141.68267 85 ft 0 kts 250°